Simultaneous Nadir Overpasses (SNOs) Predictions

Prediction of SNOs between AQUA and NOAA-19 Satellite Orbit:

Table of predicted SNOs for the next 14.0 days since TLE Epoch: 2/22/2025
Index Date (AQUA) Time (AQUA) Lat,Lon (AQUA) SZA (AQUA ) Date (NOAA-19) Time (NOAA-19) Lat,Lon (NOAA-19) SZA (NOAA-19 ) Distance(km) Time Diff (sec)
1 02/23/2025 15:14:24 -75.63, 134.49 94.87 02/23/2025 15:14:10 -75.65, 134.45 94.85 1.78 14
2 02/23/2025 16:03:49 75.90, -58.65 85.39 02/23/2025 16:04:59 75.94, -57.26 85.44 37.98 70
3 02/25/2025 17:22:40 75.63, -77.50 84.35 02/25/2025 17:21:33 75.62, -77.45 84.35 1.74 67
4 02/25/2025 18:12:00 -75.70, 89.94 95.59 02/25/2025 18:12:32 -75.70, 90.06 95.59 3.40 32
5 02/27/2025 20:20:14 75.66,-121.94 83.59 02/27/2025 20:19:56 75.63,-121.95 83.57 2.72 18
6 02/27/2025 21:09:39 -75.98, 44.76 96.11 02/27/2025 21:10:48 -76.01, 46.59 96.08 49.27 69
7 03/01/2025 22:28:26 -75.62, 26.19 97.25 03/01/2025 22:27:22 -75.64, 26.25 97.23 3.14 64
8 03/01/2025 23:17:47 75.70,-166.39 82.82 03/01/2025 23:18:18 75.69,-166.32 82.81 2.51 31
9 03/04/2025 01:25:58 -75.66, -18.28 98.02 03/04/2025 01:25:44 -75.66, -18.22 98.02 1.57 14
10 03/04/2025 02:15:25 76.04, 148.21 82.36 03/04/2025 02:16:33 76.05, 150.39 82.37 58.33 68
11 03/06/2025 03:34:08 75.60, 129.90 81.12 03/06/2025 03:33:09 75.60, 129.76 81.11 4.04 59



Historial Predications of SNOs between AQUA and NOAA-19
